map of YYL home
YYL - Airport
Location
City:  Lynn Lake, Manitoba, Canada
Name:Lynn Lake Airport
ICAO:CYYL
IATA:YYL

Details
Type:Airport (Airfield)
Use:Public/Civil
Latitude:5651'52"N (56.864444)
Longitude:10104'34"W (-101.076110)
Elevation:1170 ft (357 m)
Variation:6.05E (WMM2015v2 magnetic declination)
-0.03 annual change
Runways:2
Longest:5004 ft (1525 m), paved

Time
Time Zone:UTC-6 (DST-5)
Local Time:

Weather
METAR:CYYL 041400Z AUTO 28006KT 9SM CLR M39/M43 A3034 RMK SLP341
TAF:CYYL 041238Z 0413/0501 30008KT P6SM FEW025 SCT220
FM042200 28005KT P6SM FEW150 SCT220
RMK FCST BASED ON AUTO OBS. NXT FCST BY 041900Z

Related Locations
Nearby:
Farthest:YWKS: 11189 mi / 18006 km
Wilkins Runway (Casey), Upper Peterson Glacier, AQ

Find:

   beyond  
but within

Other Information
Maps:
NOTAMs:
Links:
Sources:

  
  • flag of Canada
  • flag of Manitoba
  

Airport Diagram

Airport diagram for YYL

Airport diagram PDF

Sectional Chart

Flight Planning
at skyvector.com

Satellite Image

Google Maps Satellite view

 

Copyright © 2004-2019 Karl L. Swartz. All rights reserved.
The Great Circle Mapper name and logo are trademarks of the Great Circle Mapper.
All other trademarks mentioned herein belong to their respective owners.
Please see credits for attibutions and further copyright information.

  Follow gcmap on Facebook Follow gcmap on Twitter GCmap on LinkedIn

hCard Microformat

Geo Microformat